IRIDIUM 80

Last updated on Wed Nov 29 2017 00:19:03 GMT+0000 (Coordinated Universal Time)

1 25469U 98051C 17332.43380737 -.00000022 00000-0 -14905-4 0 9999 2 25469 86.3931 313.4242 0002756 86.8525 75.1491 14.34215759 6375
UTC large
Height (km)
Speed (km/s)
/
Latitude / Longitude
Inclination (degrees)
Orbital Period (minutes)
Azimuth
Elevation
Range (km)
Doppler Factor

Next 0 passes for location: London (51.5072 / 0.1276)

Sorry there are no passes over London.
IRIDIUM 80